Location: *
(50.3194°N, 7.1067°E)
Time: 16:44:23
(UTC+00:00)

Cosmos 1934 Rocket - Pass Details

Date: 22 September 2019
Orbit: 938 x 999 km, 83.0° (Epoch: 14 October)

Event Time Altitude Azimuth Distance (km) Brightness Sun altitude
Rises 19:47:47 0° 353° (N) 3,628 7.5 -21.8°
Reaches altitude 10° 19:50:25 10° 0° (N) 2,686 6.7 -22.2°
Maximum altitude 19:56:16 44° 72° (ENE) 1,304 4.3 -23.0°
Enters shadow 19:56:54 43° 89° (E) 1,330 4.3 -23.1°
